Location: Church Tower
(37.7144°N, 119.6316°W)
Time: 19:25:25
(UTC+00:00)

Cosmos 2233 Rocket - Pass Details

Date: 15 November 2025
Orbit: 952 x 989 km, 82.9° (Epoch: 08 December)

Event Time Altitude Azimuth Distance (km) Brightness Sun altitude
Rises 13:10:18 0° 346° (NNW) 3,698 6.8 -17.6°
Reaches altitude 10° 13:12:56 10° 340° (NNW) 2,742 6.1 -17.1°
Maximum altitude 13:18:49 44° 270° (W) 1,324 4.3 -16.0°
Drops below altitude 10° 13:24:38 10° 201° (SSW) 2,703 6.2 -14.8°
Sets 13:27:13 0° 194° (SSW) 3,640 7.0 -14.3°
